User: anonymous
Location: Caltech
(34.1382°N, 118.1253°W)
Time: 23:25:24
(UTC-07:00)
Language:

CZ-2C R/B - Orbit

View from above orbital plane
View from above orbital plane
View from above satellite
View from above satellite

Ground track
Ground track

The orbit data is extracted from the following two-line orbital elements,

1 36089U 09061B   14273.74475774  .00000218  00000-0  66288-4 0  4477
2 36089 098.0979 302.5327 0082190 213.6706 274.2498 14.49226608258224
Epoch (UTC): 30 September 2014 17:52:27
Eccentricity: 0.0082190
inclination: 98.0979°
perigee height: 670 km
apogee height: 786 km
right ascension of ascending node: 302.5327°
argument of perigee: 213.6706°
revolutions per day: 14.49226608
mean anomaly at epoch: 274.2498°
orbit number at epoch: 25822

The dashed part of the orbit path shows where the satellite is in the earth's shadow,  

DLR